Location: D�derode
(51.8092°N, 10.1065°E)
Time: 06:24:40
(UTC+00:00)

ERS-2 - Pass Details

Date: 01 December 2020
Orbit: 492 x 498 km, 98.6° (Epoch: 23 January)

Event Time Altitude Azimuth Distance (km) Brightness Sun altitude
Exits shadow 16:36:35 20° 66° (ENE) 1,220 3.4 -12.3°
Maximum altitude 16:37:48 23° 95° (E) 1,094 3.3 -12.5°
Drops below altitude 10° 16:40:47 10° 150° (SSE) 1,701 4.7 -12.9°
Sets 16:43:09 0° 165° (SSE) 2,578 5.8 -13.3°
